Showing default

KSM1-C, 46906

Orbit data source: Space-Track

KSM1-C, 46906 is a payload satellite owned by Kleos Space (LU) in LEO that was launched on Sat, 07 Nov 2020 UTC via a PSLV-DL launch vehicle from the Sirharikota (SRI). Payload-class satellites include a variety of spacecraft equipped with specific instruments for various scientific and technological missions. These include communications satellites like Starlink; space stations such as the ISS; scientific satellites like the Hubble; Earth observation satellites from companies like Planet Labs, Umbra, and HawkEye 360; GPS; miniature CubeSats for education and research; and military/defense satellites.

Loading next visibility...
Identifier
46906, 2020-081B
Orbit
LEO
Country
Flag of UnknownUnknown / LUXE
Related business
Manufacturer
GOMSpace
Mission
Operational Commercial Sigint
Bus & Motor
CUBESAT 6U, Unknown motor
Mass
~10 kg wet, ~10 kg dry
Launch date (UTC)
2020-11-07 (5 years ago)
Launch vehicle
PSLV-DL
Launch site
Sirharikota (SRI)
Object type
Payload
Rocket body
Debris
Shape & HBR
Box, 0.1 m
Radar Cross Section
0.080 m², Small (<0.1 m²)

Expand to show TLE details & history
Last TLE update: 19 hours ago

TLE from 19 hours ago
0 KSM1-C
1 46906U 20081B   25260.19921985  .00007760  00000-0  35179-3 0  9993
2 46906  36.8941 296.9078 0002694 124.0477 236.0527 15.20425712267509
Epoch: 2025-09-17T04:46Z
TLE epoch observation values (Epoch: 2025-09-17T04:46:52.595Z)
Latitude
0.00005°
Longitude
-131.18988°
Altitude
504.7 km
Speed
7.613 km/s
True Right ascension
19h 47m 37s
True Declination
0° 00' 00"
Sunlit
Object was in full shadow at epoch
Visualization orbit readout
Latitude
Unknown
Longitude
Unknown
Altitude
Unknown
Speed
Unknown
Apparent Right ascension
Unknown
Apparent Declination
Unknown
Sunlit
N/A
Visualization observer readout
Local Sidereal Time
16:19:51
Azimuth
Unknown
Elevation
Unknown
Doppler factor
Unknown
Orbital elements
Apogee altitude
509.355 km
Perigee altitude
505.645 km
Semi-major axis
6,885.637 km
Eccentricity
0.00027
Inclination
36.8941°
RAAN
296.9078°
Arg. of periapsis
124.0477°
True anomaly
236.0271°
Mean anomaly
236.0527°
Eccentric anomaly
236.0399°
Mean motion
3.79863 °/min
Orbital period
94.77 mins
BSTAR
0.00035179
Loading maneuver chart data...
Computing Atmospheric mass density...
Loading historical data...
Loading historical data...
Loading historical data...
Loading historical data...
Loading historical data...
Loading historical data...
Loading historical data...

Documentation

Showing up to 5 results
|